Weather History for Kansas City International, MO

Change the Weather History Date:

Tuesday, July 23, 2013

  Actual Average Record
Temperature  
Mean Temperature 79 °F 79 °F  
Max Temperature 87 °F 89 °F 106 °F (1934)
Min Temperature 70 °F 69 °F 57 °F (1990)
Degree Days  
Heating Degree Days 0 0  
Month to date heating degree days 0 0  
Since 1 June heating degree days 17 9  
Since 1 July heating degree days 0 0  
Cooling Degree Days 14 14  
Month to date cooling degree days 313 307  
Year to date cooling degree days 694 689  
Since 1 June cooling degree days 589 573  
Growing Degree Days 28 (Base 50)    
Moisture  
Dew Point 65 °F    
Average Humidity 71    
Maximum Humidity 93    
Minimum Humidity 48    
Precipitation  
Precipitation T in 0.13 in 1.90 in (1973)
Month to date precipitation 0.20 3.47  
Year to date precipitation 18.25 22.53  
Snow  
Snow 0.00 in 0.00 in 0.00 in ()
Month to date snowfall 0.0 0.0  
Since 1 June snowfall 0.0 0.0  
Since 1 July snowfall 0.0 0.0  
Snow Depth 0.00 in    
Sea Level Pressure  
Sea Level Pressure 29.86 in    
Wind  
Wind Speed 9 mph (NE)    
Max Wind Speed 20 mph    
Max Gust Speed 23 mph    
Visibility 10 miles    
Events Rain    
T = Trace of Precipitation, MM = Missing Value Source: NWS Daily Summary

Daily Weather History Graph

Daily Weather History Graph

Search for Another Location

Airport:

Trip Planner

Search our weather history database for the weather conditions in past years. The results will help you decide how hot, cold, wet, or windy it might be!

Date:

Astronomy

Jul. 23, 2013 Rise Set
Actual Time 6:11 AM CDT 8:39 PM CDT
Civil Twilight 5:40 AM CDT 9:09 PM CDT
Nautical Twilight 5:02 AM CDT 9:47 PM CDT
Astronomical Twilight 4:20 AM CDT 10:29 PM CDT
Moon 9:08 PM CDT (7/23) 7:20 AM CDT (7/23)
Length of Visible Light 15h 28m
Length of Day
14h 27m
Full, 99% of the Moon is Illuminated
Jul 23
Full
Jul 29
Last Quarter
Aug 6
New
Aug 14
First Quarter
Aug 20
Full

Hourly Weather History & Observations

Time (CDT) Temp. Heat Index Dew Point Humidity Pressure Visibility Wind Dir Wind Speed Gust Speed Precip Events Conditions
12:53 AM 75.9 °F - 66.0 °F 71% 29.82 in 10.0 mi South 4.6 mph - N/A   Clear
1:53 AM 77.0 °F - 66.0 °F 69% 29.84 in 10.0 mi East 3.5 mph - N/A   Clear
2:53 AM 73.9 °F - 66.0 °F 76% 29.81 in 10.0 mi Calm Calm - N/A   Clear
3:53 AM 73.0 °F - 66.0 °F 79% 29.79 in 10.0 mi SSE 3.5 mph - N/A   Clear
4:53 AM 70.0 °F - 66.0 °F 87% 29.78 in 10.0 mi SSW 8.1 mph - N/A   Clear
5:53 AM 71.1 °F - 66.9 °F 87% 29.78 in 10.0 mi SW 5.8 mph - N/A   Scattered Clouds
6:53 AM 72.0 °F - 69.1 °F 91% 29.79 in 10.0 mi SW 8.1 mph - N/A   Scattered Clouds
7:23 AM 75.2 °F - 69.8 °F 83% 29.85 in 10.0 mi Calm Calm - N/A   Mostly Cloudy
7:53 AM 75.9 °F - 70.0 °F 82% 29.83 in 10.0 mi North 9.2 mph - N/A   Mostly Cloudy
8:53 AM 78.1 °F - 70.0 °F 76% 29.88 in 10.0 mi North 11.5 mph - N/A   Mostly Cloudy
9:46 AM 75.2 °F - 64.4 °F 69% 29.94 in 10.0 mi North 13.8 mph - N/A   Mostly Cloudy
9:53 AM 75.9 °F - 64.9 °F 69% 29.92 in 9.0 mi North 13.8 mph - N/A   Mostly Cloudy
10:25 AM 75.2 °F - 64.4 °F 69% 29.92 in 10.0 mi NNE 17.3 mph - N/A   Overcast
10:53 AM 75.9 °F - 64.0 °F 67% 29.90 in 10.0 mi NE 10.4 mph - N/A   Overcast
11:53 AM 77.0 °F - 64.0 °F 64% 29.91 in 10.0 mi NE 6.9 mph - N/A   Overcast
12:53 PM 77.0 °F - 64.0 °F 64% 29.88 in 10.0 mi East 10.4 mph - 0.00 in Rain Light Rain
1:53 PM 80.1 °F 81.9 °F 64.9 °F 60% 29.87 in 10.0 mi East 6.9 mph - 0.00 in   Mostly Cloudy
2:53 PM 84.0 °F 85.8 °F 64.9 °F 53% 29.89 in 10.0 mi NE 10.4 mph - N/A   Mostly Cloudy
3:53 PM 84.9 °F 86.1 °F 64.0 °F 49% 29.89 in 10.0 mi Variable 5.8 mph - N/A   Scattered Clouds
4:53 PM 84.9 °F 86.6 °F 64.9 °F 51% 29.85 in 10.0 mi ENE 9.2 mph - N/A   Scattered Clouds
5:53 PM 84.9 °F 85.4 °F 62.1 °F 46% 29.85 in 10.0 mi NNE 10.4 mph - N/A   Scattered Clouds
6:53 PM 82.9 °F 85.0 °F 66.0 °F 56% 29.85 in 10.0 mi NNE 12.7 mph - N/A   Scattered Clouds
7:53 PM 81.0 °F 82.2 °F 63.0 °F 54% 29.86 in 10.0 mi NE 9.2 mph - N/A   Scattered Clouds
8:53 PM 78.1 °F - 64.0 °F 62% 29.89 in 10.0 mi NE 9.2 mph - N/A   Scattered Clouds
9:53 PM 75.0 °F - 62.1 °F 64% 29.89 in 10.0 mi NE 11.5 mph - N/A   Scattered Clouds
10:53 PM 72.0 °F - 59.0 °F 64% 29.93 in 10.0 mi NE 12.7 mph - N/A   Mostly Cloudy
11:53 PM 71.1 °F - 57.9 °F 63% 29.92 in 10.0 mi NE 16.1 mph - N/A   Overcast